SAL0818 KLAX-KLAS

Flight info

Callsign SAL0818
Flight time N/A
Altitude 29000
Route ORCKA5 MISEN RNDRZ3
Aircraft B737/M-SDE2E3FGHIRWXY/LB1

Departure

Time 2026-04-26 05:53
Airport Los Angeles International Airport (KLAX)

Arrival

Time N/A
Airport Harry Reid International Airport (KLAS)
Time Latitude Longitude Altitude Speed Heading
2026-04-26 05:32 33.94101 -118.40143 119 ft 0 kts 266°
2026-04-26 05:41 33.94101 -118.40141 119 ft 1 kts 266°
2026-04-26 05:42 33.94101 -118.40122 119 ft 2 kts 268°
2026-04-26 05:42 33.94102 -118.40104 119 ft 2 kts 267°
2026-04-26 05:42 33.94103 -118.40089 118 ft 1 kts 268°
2026-04-26 05:42 33.94106 -118.40082 118 ft 1 kts 191°
2026-04-26 05:43 33.94118 -118.40085 118 ft 2 kts 161°
2026-04-26 05:43 33.94128 -118.40088 118 ft 1 kts 175°
2026-04-26 05:43 33.94129 -118.40088 118 ft 0 kts 175°
2026-04-26 05:45 33.94110 -118.40086 118 ft 5 kts 174°
2026-04-26 05:45 33.94039 -118.40075 118 ft 13 kts 173°
2026-04-26 05:46 33.93957 -118.40061 118 ft 12 kts 172°
2026-04-26 05:46 33.93951 -118.40060 118 ft 0 kts 172°
2026-04-26 05:47 33.93934 -118.40057 118 ft 6 kts 166°
2026-04-26 05:48 33.93884 -118.39996 116 ft 14 kts 101°
2026-04-26 05:48 33.93895 -118.39841 113 ft 22 kts 83°
2026-04-26 05:48 33.93916 -118.39628 110 ft 26 kts 83°
2026-04-26 05:48 33.93941 -118.39398 108 ft 25 kts 83°
2026-04-26 05:49 33.93962 -118.39191 107 ft 21 kts 83°
2026-04-26 05:49 33.93994 -118.38872 103 ft 14 kts 83°
2026-04-26 05:49 33.94005 -118.38756 103 ft 13 kts 83°
2026-04-26 05:50 33.94019 -118.38618 103 ft 18 kts 83°
2026-04-26 05:50 33.94038 -118.38441 102 ft 23 kts 83°
2026-04-26 05:50 33.94062 -118.38218 100 ft 27 kts 83°
2026-04-26 05:50 33.94076 -118.38047 100 ft 0 kts 99°
2026-04-26 05:51 33.94071 -118.38032 100 ft 5 kts 120°
2026-04-26 05:51 33.94000 -118.38014 100 ft 16 kts 218°
2026-04-26 05:51 33.93975 -118.38101 100 ft 0 kts 264°
2026-04-26 05:52 33.93975 -118.38106 100 ft 1 kts 264°
2026-04-26 05:52 33.93966 -118.38204 100 ft 26 kts 263°
2026-04-26 05:53 33.93909 -118.38763 104 ft 110 kts 263°
2026-04-26 05:53 33.93766 -118.40100 233 ft 183 kts 262°
2026-04-26 05:53 33.93556 -118.41839 861 ft 222 kts 262°
2026-04-26 05:53 33.93319 -118.43890 1618 ft 255 kts 265°
2026-04-26 05:54 33.92929 -118.45903 3100 ft 254 kts 246°
2026-04-26 05:54 33.91914 -118.47751 4422 ft 262 kts 232°
2026-04-26 05:54 33.90726 -118.49547 4972 ft 272 kts 230°
2026-04-26 05:54 33.89435 -118.51394 5006 ft 270 kts 230°
2026-04-26 05:55 33.88184 -118.53181 5005 ft 269 kts 230°
2026-04-26 05:55 33.86699 -118.54701 4978 ft 268 kts 208°
2026-04-26 05:55 33.84842 -118.55512 5019 ft 272 kts 194°
2026-04-26 05:55 33.82890 -118.55528 6466 ft 271 kts 172°
2026-04-26 05:56 33.81005 -118.55113 7703 ft 279 kts 168°
2026-04-26 05:56 33.79114 -118.54615 8945 ft 283 kts 168°
2026-04-26 05:56 33.77127 -118.54080 9886 ft 283 kts 167°
2026-04-26 05:56 33.75064 -118.53523 9983 ft 289 kts 167°
2026-04-26 05:57 33.72990 -118.52957 9999 ft 290 kts 165°
2026-04-26 05:57 33.71107 -118.51868 9988 ft 288 kts 143°
2026-04-26 05:57 33.69519 -118.50204 10001 ft 288 kts 133°
2026-04-26 05:57 33.68406 -118.47970 10155 ft 301 kts 107°
2026-04-26 05:58 33.67757 -118.45456 10859 ft 324 kts 109°
2026-04-26 05:58 33.66950 -118.42708 11707 ft 340 kts 110°
2026-04-26 05:58 33.66119 -118.39904 12848 ft 347 kts 110°
2026-04-26 05:58 33.65253 -118.36987 13973 ft 353 kts 110°
2026-04-26 05:59 33.64402 -118.33998 15013 ft 360 kts 102°
2026-04-26 05:59 33.64278 -118.30834 16063 ft 364 kts 84°
2026-04-26 05:59 33.64451 -118.27599 16887 ft 363 kts 89°
2026-04-26 05:59 33.64462 -118.24279 16992 ft 370 kts 90°
2026-04-26 06:00 33.64536 -118.20928 16986 ft 374 kts 81°
2026-04-26 06:00 33.65220 -118.17785 18061 ft 373 kts 73°
2026-04-26 06:00 33.66478 -118.14849 18829 ft 377 kts 52°
2026-04-26 06:00 33.68390 -118.12649 18943 ft 381 kts 34°
2026-04-26 06:01 33.70557 -118.10747 18989 ft 382 kts 44°
2026-04-26 06:01 33.72497 -118.08423 19020 ft 382 kts 45°
2026-04-26 06:01 33.74406 -118.06142 19011 ft 381 kts 45°
2026-04-26 06:01 33.76289 -118.03897 19007 ft 381 kts 45°
2026-04-26 06:02 33.78222 -118.01593 19241 ft 388 kts 45°
2026-04-26 06:02 33.80122 -117.99326 20277 ft 388 kts 45°
2026-04-26 06:02 33.82058 -117.97015 21085 ft 392 kts 45°
2026-04-26 06:02 33.84106 -117.94568 21858 ft 398 kts 45°
2026-04-26 06:03 33.86131 -117.92147 22641 ft 403 kts 45°
2026-04-26 06:03 33.88190 -117.89684 23391 ft 407 kts 45°
2026-04-26 06:03 33.90289 -117.87171 24115 ft 412 kts 45°
2026-04-26 06:03 33.92368 -117.84681 24807 ft 416 kts 45°
2026-04-26 06:04 33.94459 -117.82173 25474 ft 420 kts 45°
2026-04-26 06:04 33.96597 -117.79607 26128 ft 425 kts 45°
2026-04-26 06:04 33.98756 -117.77016 26762 ft 429 kts 45°
2026-04-26 06:04 34.00998 -117.74321 27403 ft 433 kts 45°
2026-04-26 06:05 34.03301 -117.71551 28040 ft 437 kts 45°
2026-04-26 06:05 34.05585 -117.68802 28678 ft 440 kts 45°
2026-04-26 06:05 34.07894 -117.66019 28997 ft 441 kts 45°
2026-04-26 06:05 34.10265 -117.63162 29066 ft 458 kts 45°
2026-04-26 06:06 34.12633 -117.60305 29101 ft 473 kts 45°
2026-04-26 06:06 34.17523 -117.54397 29047 ft 474 kts 45°
2026-04-26 06:07 34.22275 -117.48646 29012 ft 473 kts 45°
2026-04-26 06:07 33.92965 -118.47980 1075 ft 181 kts 83°